Flag for U.S.A. Weather past 2 weeks in Roanoke, Virginia, U.S.A.

Now
65 °F

Clear.


Feels Like: 65 °F
Forecast: 60 / 76 °F
Wind: 3 mph from West

Location: Roanoke Regional Airport

Current Time: Jul 29, 2014 at 2:03:42 AM

Latest Report: Jul 29, 2014 at 12:54 AM


Visibility: 10 mi

Pressure: 29.92 "Hg

Humidity: 68%

Dew point: 54 °F

Location of RoanokeLocation

Historic Weather in Roanoke — Graph

°F

Roanoke temperature yesterday

Maximum temperature yesterday: 78 °F (at 11:54 AM)
Minimum temperature yesterday: 67 °F (at 11:54 PM)
Average temperature yesterday: 74 °F

Past Weeks' High & Low Weather Summary

 TemperatureHumidityPressure
High93 °F (Jul 14, 2:54 PM)96% (Jul 22, 6:54 AM)30.24 "Hg (Jul 22, 6:54 AM)
Low54 °F (Jul 17, 5:54 AM)31% (Jul 26, 4:54 PM)29.72 "Hg (Jul 28, 3:54 AM)
Average74 °F69%30.01 "Hg
* Reported Jul 14 12:54 AM — Jul 29 12:54 AM, Roanoke, Weather by CustomWeather, © 2014

Note: Actual official high and low records may vary slightly from our data, if they occured in-between our weather recording intervals... More about our weather records

Advertising

Roanoke weather history for previous 24 hours

 ConditionsComfort  
Time TempWeatherWind HumidityBarometerVisibility
12:54 AM
Jul 29
65 °FClear.3 mph68%29.92 "Hg10 mi
11:54 PM
Jul 28
67 °FPassing clouds.6 mph63%29.92 "Hg10 mi
10:54 PM68 °FPassing clouds.12 mph61%29.91 "Hg10 mi
9:54 PM69 °FPassing clouds.12 mph59%29.91 "Hg10 mi
8:54 PM70 °FPartly sunny.8 mph57%29.89 "Hg10 mi
7:54 PM72 °FScattered clouds.14 mph52%29.87 "Hg10 mi
6:54 PM75 °FPartly sunny.17 mph50%29.85 "Hg10 mi
5:54 PM76 °FPartly sunny.15 mph48%29.84 "Hg10 mi
4:54 PM76 °FBroken clouds.15 mph48%29.83 "Hg10 mi
3:54 PM78 °FPartly sunny.21 mph45%29.82 "Hg10 mi
2:54 PM77 °FPartly sunny.18 mph47%29.81 "Hg10 mi
1:54 PM77 °FOvercast.17 mph45%29.81 "Hg10 mi
12:54 PM76 °FOvercast.18 mph47%29.81 "Hg10 mi
11:54 AM78 °FPartly sunny.18 mph43%29.80 "Hg10 mi
10:54 AM77 °FPartly sunny.23 mph47%29.78 "Hg10 mi
9:54 AM76 °FScattered clouds.24 mph48%29.76 "Hg10 mi
8:54 AM74 °FScattered clouds.16 mph53%29.75 "Hg10 mi
7:54 AM73 °FScattered clouds.7 mph59%29.73 "Hg10 mi
6:54 AM71 °FPassing clouds.10 mph68%29.73 "Hg10 mi
5:54 AM72 °FPassing clouds.8 mph71%29.73 "Hg10 mi
4:54 AM72 °FClear.13 mph73%29.72 "Hg10 mi
3:54 AM73 °FClear.10 mph74%29.72 "Hg10 mi
2:54 AM74 °FClear.13 mph71%29.72 "Hg10 mi
Weather by CustomWeather, © 2014

See weather overviewHow to use our weather pages